Location: Newark
(55.7678°N, 23.6664°E)
Time: 20:27:28
(UTC+00:00)

N. Korean satellite - Pass Details

Date: 27 September 2020
Orbit: 452 x 505 km, 97.2° (Epoch: 28 October)

Event Time Altitude Azimuth Distance (km) Brightness Sun altitude
Rises 02:49:21 0° 28° (NNE) 2,604 11.0 -13.5°
Reaches altitude 10° 02:52:28 10° 57° (ENE) 1,703 10.6 -13.1°
Maximum altitude 02:54:14 13° 86° (E) 1,511 10.3 -12.9°
Drops below altitude 10° 02:55:59 10° 115° (ESE) 1,681 10.0 -12.6°
Sets 02:59:00 0° 144° (SE) 2,542 10.5 -12.2°
